Atlantic - Newfoundland: Past 24 Hour Conditions

 

St. Anthony Airport

06:30 AM NDT 22 October 2014
This table is a summary of hourly weather conditions for the past 24 hours.
Date / Time
(NDT)
Wind(knots) Conditions Visibility(km) Pressure(kPa) Air tempC) Relative humidity(%) Dew pointC) Wind Chill
22 October 2014
6:30 W 3 Clear 16 102.8 -1 95 -1 -2
5:30 WNW 5 Clear 16 102.8 0 97 0 -3
4:30 WSW 4 Clear 16 102.7 0 96 -1 -3
3:30 W 4 Clear 16 102.6 1 93 -1 *
2:30 NNW 4 Clear 16 102.6 1 94 0 *
1:30 NW 6 Clear 16 102.5 1 92 0 *
0:30 WNW 5 Clear 16 102.5 2 92 0 *
21 October 2014
23:30 WNW 5 Clear 16 102.4 2 92 1 *
22:30 WNW 5 Clear 16 102.3 2 91 1 *
21:30 W 7 Clear 16 102.2 3 88 1 *
20:30 W 7 Mostly Cloudy 16 102.0 4 83 1 *
19:30 W 5 Cloudy 16 102.0 5 78 1 *
18:30 W 7 Cloudy 16 101.8 6 73 1 *
17:30 W 9 Cloudy 16 101.7 6 67 1 *
16:30 WNW 11 Cloudy 16 101.6 7 65 1 *
15:30 N/A N/A 16 101.5 7 64 1 *
14:30 W 11 Cloudy 16 101.4 7 63 0 *
13:30 WNW 15 Cloudy 16 101.3 7 62 0 *
12:30 WNW 14 gust 21 Mostly Cloudy 16 101.2 7 64 1 *
11:30 W 17 gust 22 Cloudy 16 101.0 6 68 1 *
10:30 W 19 Mainly Sunny 16 100.9 6 73 1 *
9:30 WSW 15 Sunny 16 100.8 5 76 1 *
8:30 WSW 16 gust 21 Mainly Sunny 16 100.6 4 78 1 *
7:30 WSW 15 gust 24 Cloudy 16 100.4 5 78 1 *
6:30 WSW 20 gust 26 Cloudy 16 100.1 5 78 1 *
 
Map of Atlantic - Newfoundland marine weather areas Southwestern Grand Banks - 44138 Banquereau - 44139 Tail of the Bank - 44140 Nickerson Bank - 44251 Northeast Burgeo Bank - 44255 Blanc-Sablon Airport Cap Whittle Chevery Natashquan Airport Heath Point Miscou Island Grand Étang Ingonish Beach North Mountain St.Paul Island J.A. Douglas McCurdy Sydney Airport Charlottetown Airport East Point North Cape Argentia Bonavista Burgeo Cape Race Corner Brook Daniel's Harbour Englee Ferolle Point La Scie Port aux Basques Rocky Harbour Sagona Island St. Anthony Airport St. John's Int'l Airport St. Lawrence Stephenville Airport Twillingate Winterland Wreckhouse Cartwright Airport Mary's Harbour Grates Cove Pool's Island Marticot Island Long Pond Îles de la Madeleine Airport
Legend: buoyBuoy land stationLand Station